Phuket, Thailand

7:40 AM +07 on December 15, 2017 (GMT +0700)
Phuket International

Weather History for VTSP - June, 2017

Change the Weather History Date:

Monday, June 19, 2017

  Actual Average Record
Temperature  
Mean Temperature 82 °F -  
Max Temperature 91 °F 88 °F 95 °F (2002)
Min Temperature 73 °F 78 °F 73 °F (1999)
Cooling Degree Days 17    
Growing Degree Days 32 (Base 50)    
Moisture  
Dew Point 74 °F    
Average Humidity 68    
Maximum Humidity 83    
Minimum Humidity 56    
Precipitation  
Precipitation 0.01 in 0.37 in - ()
Sea Level Pressure  
Sea Level Pressure 29.83 in    
Wind  
Wind Speed 8 mph ()    
Max Wind Speed 16 mph    
Max Gust Speed -    
Visibility 5.0 miles    
Events      
Averages and records for this station are not official NWS values.
T = Trace of Precipitation, MM = Missing Value Source: Averaged Metar Reports

Daily Weather History Graph

Daily Weather History Graph

Search for Another Location

Airport or City:

Trip Planner

Search our weather history database for the weather conditions in past years. The results will help you decide how hot, cold, wet, or windy it might be!

Date:

Astronomy

Jun. 19, 2017 Rise Set
Actual Time 6:10 AM +07 6:45 PM +07
Civil Twilight 5:47 AM +07 7:08 PM +07
Nautical Twilight 5:20 AM +07 7:35 PM +07
Astronomical Twilight 4:53 AM +07 8:02 PM +07
Moon 1:34 AM +07 (6/19) 2:02 PM +07 (6/19)
Length of Visible Light 13h 21m
Length of Day
12h 35m
Waning Crescent, 31% of the Moon is Illuminated
Jun 19
Waning Crescent
Jun 24
New
Jul 1
First Quarter
Jul 9
Full
Jul 17
Last Quarter

Hourly Weather History & Observations

Time (+07) Temp. Heat Index Dew Point Humidity Pressure Visibility Wind Dir Wind Speed Gust Speed Precip Events Conditions
12:00 AM 78.8 °F - 73.4 °F 83% 29.89 in 5.0 mi Variable 4.6 mph - N/A   Mostly Cloudy
12:30 AM 80.6 °F 85.4 °F 73.4 °F 79% 29.86 in 5.0 mi WSW 5.8 mph - N/A   Mostly Cloudy
1:00 AM 85 °F - 78 °F 75% 29.82 in 5 mi WSW 3.5 mph - -   Mist
1:00 AM 80.6 °F 85.4 °F 73.4 °F 79% 29.86 in 5.0 mi WSW 5.8 mph - N/A   Mostly Cloudy
1:30 AM 82.4 °F 88.2 °F 73.4 °F 74% 29.83 in 5.0 mi West 8.1 mph - N/A   Mostly Cloudy
2:00 AM 82.4 °F 88.2 °F 73.4 °F 74% 29.83 in 5.0 mi West 8.1 mph - N/A   Mostly Cloudy
2:30 AM 82.4 °F 88.2 °F 73.4 °F 74% 29.83 in 5.0 mi West 8.1 mph - N/A   Mostly Cloudy
3:00 AM 82.4 °F 88.2 °F 73.4 °F 74% 29.83 in 5.0 mi West 11.5 mph - N/A   Mostly Cloudy
3:30 AM 82.4 °F 88.2 °F 73.4 °F 74% 29.83 in 5.0 mi West 10.4 mph - N/A   Mostly Cloudy
4:00 AM 78 °F - 71 °F 74% 29.78 in 5 mi WNW 3.5 mph - -   Mist
4:00 AM 82.4 °F 88.2 °F 73.4 °F 74% 29.80 in 5.0 mi West 11.5 mph - N/A   Mostly Cloudy
4:30 AM 82.4 °F 88.2 °F 73.4 °F 74% 29.80 in 5.0 mi West 8.1 mph - N/A   Mostly Cloudy
5:00 AM 82.4 °F 88.2 °F 73.4 °F 74% 29.80 in 5.0 mi West 6.9 mph - N/A   Mostly Cloudy
5:30 AM 82.4 °F 88.2 °F 73.4 °F 74% 29.80 in 5.0 mi West 8.1 mph - N/A   Mostly Cloudy
6:00 AM 82.4 °F 88.2 °F 73.4 °F 74% 29.83 in 5.0 mi West 4.6 mph - N/A   Mostly Cloudy
6:30 AM 82.4 °F 88.2 °F 73.4 °F 74% 29.83 in 5.0 mi West 8.1 mph - N/A   Mostly Cloudy
7:00 AM 85 °F - 77 °F 72% 29.79 in 5 mi West 2.3 mph - -   Mist
7:00 AM 82.4 °F 88.2 °F 73.4 °F 74% 29.83 in 5.0 mi West 6.9 mph - N/A   Mostly Cloudy
7:30 AM 84.2 °F 90.9 °F 73.4 °F 70% 29.83 in 5.0 mi West 9.2 mph - N/A   Mostly Cloudy
8:00 AM 84.2 °F 92.3 °F 75.2 °F 74% 29.86 in 5.0 mi West 10.4 mph - N/A   Mostly Cloudy
8:30 AM 86.0 °F 95.1 °F 75.2 °F 70% 29.86 in 5.0 mi West 15.0 mph - N/A   Mostly Cloudy
9:00 AM 86.0 °F 95.1 °F 75.2 °F 70% 29.86 in 5.0 mi West 15.0 mph - N/A   Mostly Cloudy
9:30 AM 87.8 °F 97.6 °F 75.2 °F 66% 29.86 in 5.0 mi West 13.8 mph - N/A   Mostly Cloudy
10:00 AM 90 °F - 77 °F 57% 29.81 in 5 mi WNW 3.5 mph - -   Mist
10:00 AM 87.8 °F 97.6 °F 75.2 °F 66% 29.86 in 5.0 mi West 15.0 mph - N/A   Mostly Cloudy
10:30 AM 87.8 °F 97.6 °F 75.2 °F 66% 29.86 in 5.0 mi West 13.8 mph - N/A   Mostly Cloudy
11:00 AM 87.8 °F 97.6 °F 75.2 °F 66% 29.86 in 5.0 mi West 16.1 mph - N/A   Mostly Cloudy
11:30 AM 87.8 °F 97.6 °F 75.2 °F 66% 29.86 in 5.0 mi West 15.0 mph - N/A   Mostly Cloudy
12:00 PM 87.8 °F 97.6 °F 75.2 °F 66% 29.86 in 5.0 mi West 15.0 mph - N/A   Mostly Cloudy
12:30 PM 89.6 °F 99.8 °F 75.2 °F 62% 29.86 in 5.0 mi West 15.0 mph - N/A   Mostly Cloudy
1:00 PM 91 °F - 77 °F 56% 29.78 in 5 mi West 4.6 mph - -   Haze
1:00 PM 87.8 °F 97.6 °F 75.2 °F 66% 29.83 in 5.0 mi West 15.0 mph - N/A   Mostly Cloudy
1:30 PM 89.6 °F 99.8 °F 75.2 °F 62% 29.83 in 5.0 mi West 16.1 mph - N/A   Mostly Cloudy
2:00 PM 89.6 °F 99.8 °F 75.2 °F 62% 29.83 in 5.0 mi West 16.1 mph - N/A   Mostly Cloudy
2:30 PM 87.8 °F 95.6 °F 73.4 °F 62% 29.80 in 5.0 mi West 15.0 mph - N/A   Mostly Cloudy
3:00 PM 89.6 °F 99.8 °F 75.2 °F 62% 29.80 in 5.0 mi West 16.1 mph - N/A   Mostly Cloudy
3:30 PM 87.8 °F 95.6 °F 73.4 °F 62% 29.80 in 5.0 mi West 15.0 mph - N/A   Mostly Cloudy
4:00 PM 90 °F - 77 °F 59% 29.75 in 5 mi West 4.6 mph - -   Mist
4:00 PM 89.6 °F 98.2 °F 73.4 °F 59% 29.80 in 5.0 mi West 16.1 mph - N/A   Mostly Cloudy
4:30 PM 87.8 °F 95.6 °F 73.4 °F 62% 29.80 in 5.0 mi West 15.0 mph - N/A   Mostly Cloudy
5:00 PM 87.8 °F 95.6 °F 73.4 °F 62% 29.80 in 5.0 mi West 13.8 mph - N/A   Mostly Cloudy
5:30 PM 86.0 °F 93.4 °F 73.4 °F 66% 29.80 in 5.0 mi West 12.7 mph - N/A   Mostly Cloudy
6:00 PM 86.0 °F 93.4 °F 73.4 °F 66% 29.80 in 5.0 mi West 11.5 mph - N/A   Mostly Cloudy
6:30 PM 86.0 °F 91.8 °F 71.6 °F 62% 29.80 in 5.0 mi West 11.5 mph - N/A   Mostly Cloudy
7:00 PM 86 °F - 76 °F 65% 29.77 in 5 mi West 3.5 mph - -   Mist
7:00 PM 86.0 °F 91.8 °F 71.6 °F 62% 29.83 in 5.0 mi West 10.4 mph - N/A   Mostly Cloudy
7:30 PM 84.2 °F 90.9 °F 73.4 °F 70% 29.83 in 5.0 mi West 10.4 mph - N/A   Mostly Cloudy
8:00 PM 84.2 °F 89.6 °F 71.6 °F 66% 29.83 in 5.0 mi West 11.5 mph - N/A   Mostly Cloudy
8:30 PM 84.2 °F 89.6 °F 71.6 °F 66% 29.86 in 5.0 mi West 10.4 mph - N/A   Mostly Cloudy
9:00 PM 84.2 °F 89.6 °F 71.6 °F 66% 29.86 in 5.0 mi West 11.5 mph - N/A   Mostly Cloudy
9:30 PM 84.2 °F 90.9 °F 73.4 °F 70% 29.89 in 5.0 mi West 11.5 mph - N/A   Mostly Cloudy
10:00 PM 86 °F - 78 °F 70% 29.83 in 5 mi West 3.5 mph - -   Mist
10:00 PM 84.2 °F 90.9 °F 73.4 °F 70% 29.89 in 5.0 mi West 9.2 mph - N/A   Mostly Cloudy
10:30 PM 84.2 °F 90.9 °F 73.4 °F 70% 29.89 in 5.0 mi West 8.1 mph - N/A   Mostly Cloudy
11:00 PM 84.2 °F 90.9 °F 73.4 °F 70% 29.89 in 5.0 mi West 10.4 mph - N/A   Mostly Cloudy
11:30 PM 84.2 °F 90.9 °F 73.4 °F 70% 29.89 in 5.0 mi West 12.7 mph - N/A   Mostly Cloudy